• Join FlightAware (Why Join?)
  • Login
  • US Flag GB Flag 
22:49 EST


 

Airport Tracker/Info


-or-


 

Live Flight TrackerFlight Track Log ✈ N877PM ✈ 10-May-2014 ✈ KBIE - KCID

Flight Track Log - Related Links

Times and Time Zones

All times are in EDT time to prevent confusion due to time zone crossing. See the N877PM flight status page for this flight to view local times or setup timezone preferences in your user account.

Time Position Orientation Groundspeed Altitude Reporting Facility
EDT Latitude Longitude Course Direction KTS MPH feet Rate Location/Type
09:22 40.3253 -96.6133 65° Northeast 198 228 7,200  Level Minneapolis Center
09:23 40.3492 -96.5378 67° East 213 245 9,500 2,160 Climbing Minneapolis Center
09:24 40.3756 -96.4642 65° Northeast 219 252 11,700 2,160 Climbing Minneapolis Center
09:25 40.4067 -96.3725 66° East 226 260 14,000 1,980 Climbing Minneapolis Center
09:26 40.4333 -96.2906 67° East 239 275 15,800 1,860 Climbing Minneapolis Center
09:27 40.4852 -96.1945 66° East  Level FlightAware Approximate
09:27 40.4525 -96.2025 74° East 246 283 17,800  Level Minneapolis Center
09:28 40.4661 -96.1131 79° East 247 284 19,500 1,620 Climbing Minneapolis Center
09:29 40.4831 -96.0153 77° East 267 307 21,200 1,560 Climbing Minneapolis Center
09:30 40.4994 -95.9156 78° East 275 316 22,800 840 Climbing Minneapolis Center
09:32 40.5375 -95.8139 64° Northeast 301 346 23,000 780 Climbing Minneapolis Center
09:33 40.5783 -95.6986 65° Northeast 336 387 24,500 1,500 Climbing Minneapolis Center
09:34 40.6175 -95.5850 66° East 339 390 26,100 1,620 Climbing Minneapolis Center
09:35 40.6550 -95.4747 66° East 339 390 27,800 1,620 Climbing Minneapolis Center
09:36 40.7000 -95.3439 66° East 333 383 29,500 1,560 Climbing Minneapolis Center
09:37 40.7375 -95.2322 66° East 332 382 31,000 720 Climbing Minneapolis Center
09:38 40.7764 -95.1131 67° East 344 396 31,000  Level Minneapolis Center
09:39 40.8211 -94.9819 66° East 376 433 31,000  Level Minneapolis Center
09:40 40.8681 -94.8478 65° Northeast 395 455 31,000  Level Minneapolis Center
09:41 40.9125 -94.7125 66° East 397 457 31,000  Level Minneapolis Center
09:42 40.9572 -94.5775 66° East 401 461 31,000  Level Minneapolis Center
09:43 41.0044 -94.4339 66° East 401 461 31,000  Level Minneapolis Center
09:44 41.0486 -94.3006 66° East 401 461 31,000  Level Minneapolis Center
09:45 41.0942 -94.1656 66° East 401 461 31,000  Level Minneapolis Center
09:46 41.1358 -94.0328 67° East 399 459 31,000  Level Minneapolis Center
09:47 41.1781 -93.9028 67° East 393 452 31,000 -420 Level Minneapolis Center
09:48 41.2308 -93.7431 66° East 393 452 30,200 -1,320 Descending Minneapolis Center
09:49 41.2719 -93.6114 67° East 393 452 28,300 -1,920 Descending Minneapolis Center
09:50 41.3142 -93.4764 67° East 393 452 26,300 -1,980 Descending Minneapolis Center
09:51 41.3578 -93.3422 67° East 393 452 24,300 -1,980 Descending Minneapolis Center
09:52 41.4006 -93.2100 67° East 393 452 22,300 -1,980 Descending Minneapolis Center
09:53 41.4419 -93.0753 68° East 393 452 20,300 -1,980 Descending Minneapolis Center
09:54 41.4858 -92.9383 67° East 395 455 18,300 -2,040 Descending Minneapolis Center
09:55 41.5286 -92.8022 67° East 398 458 16,200 -2,100 Descending Minneapolis Center
09:56 41.5692 -92.6708 68° East 392 451 14,000 -2,220 Descending Minneapolis Center
09:57 41.6133 -92.5236 68° East 366 421 11,600 -1,440 Descending Chicago Center
09:58 41.6492 -92.4094 67° East 343 395 11,000 -1,080 Descending Chicago Center
09:59 41.6822 -92.3008 68° East 325 374 9,500 -1,740 Descending Chicago Center
10:00 41.7142 -92.1978 67° East 310 357 7,500 -1,740 Descending Chicago Center
10:01 41.7503 -92.0731 69° East 306 352 6,000 -780 Descending Chicago Center
10:02 41.7625 -91.9719 81° East 284 327 6,000  Level Chicago Center
10:03 41.7753 -91.8656 81° East 288 331 6,000 -720 Level Chicago Center
10:04 41.7883 -91.7689 80° East 278 320 4,600 -1,560 Descending Chicago Center
10:05 41.8208 -91.6906 61° Northeast 261 300 2,900 -1,440 Descending Chicago Center
10:06 41.8625 -91.6647 25° Northeast 205 236 1,700 -1,200 Descending Chicago Center